VKG272 EKBI-LGIR

Flight info

Callsign VKG272
Flight time 3h 21m
Altitude 35000
Route ALS M852 EKERN DCT RAMAR DCT NUSGU DCT BOLBO M748 OSKAN DCT HDO DCT ODLIV DCT BNO DCT PEPIK DCT XOMBA DCT KEROP DCT TISAK DCT IDABO DCT IBISI DCT MAKED UL617 TSL DCT AMSIV UL617 AGISA DCT SKP UL617 KEA UL607 GIVIS T514 XAVIS
Aircraft A321/M-SDE3FGHIRWY/LB1

Departure

Time 2026-05-07 09:42
Airport Billund Airport (EKBI)

Arrival

Time 2026-05-07 13:03
Airport Heraklion International Nikos Kazantzakis Airport (LGIR)
Time Latitude Longitude Altitude Speed Heading
2026-05-07 09:07 55.74542 9.15078 216 ft 0 kts 357°
2026-05-07 09:30 55.74519 9.15080 229 ft 4 kts 357°
2026-05-07 09:30 55.74496 9.15082 219 ft 2 kts 356°
2026-05-07 09:30 55.74472 9.15078 222 ft 4 kts 34°
2026-05-07 09:31 55.74458 9.15044 220 ft 4 kts 81°
2026-05-07 09:31 55.74456 9.15010 219 ft 0 kts 86°
2026-05-07 09:32 55.74456 9.15001 219 ft 4 kts 86°
2026-05-07 09:32 55.74454 9.14953 219 ft 4 kts 86°
2026-05-07 09:32 55.74453 9.14905 219 ft 4 kts 86°
2026-05-07 09:32 55.74452 9.14875 219 ft 0 kts 87°
2026-05-07 09:34 55.74452 9.14877 219 ft 1 kts 87°
2026-05-07 09:34 55.74449 9.14939 222 ft 8 kts 109°
2026-05-07 09:35 55.74404 9.14979 219 ft 7 kts 175°
2026-05-07 09:35 55.74359 9.14984 219 ft 6 kts 176°
2026-05-07 09:35 55.74304 9.14989 220 ft 11 kts 176°
2026-05-07 09:35 55.74213 9.15010 220 ft 12 kts 145°
2026-05-07 09:36 55.74200 9.15136 216 ft 10 kts 87°
2026-05-07 09:36 55.74203 9.15250 216 ft 9 kts 87°
2026-05-07 09:36 55.74206 9.15347 216 ft 8 kts 87°
2026-05-07 09:36 55.74210 9.15486 216 ft 15 kts 86°
2026-05-07 09:37 55.74217 9.15688 218 ft 16 kts 86°
2026-05-07 09:37 55.74223 9.15881 224 ft 15 kts 87°
2026-05-07 09:37 55.74228 9.16057 216 ft 14 kts 87°
2026-05-07 09:37 55.74233 9.16227 218 ft 16 kts 87°
2026-05-07 09:38 55.74240 9.16424 216 ft 15 kts 87°
2026-05-07 09:38 55.74245 9.16605 216 ft 14 kts 86°
2026-05-07 09:38 55.74251 9.16778 216 ft 16 kts 87°
2026-05-07 09:38 55.74258 9.17002 219 ft 21 kts 87°
2026-05-07 09:39 55.74266 9.17260 220 ft 20 kts 87°
2026-05-07 09:39 55.74273 9.17494 216 ft 18 kts 87°
2026-05-07 09:39 55.74279 9.17704 216 ft 16 kts 87°
2026-05-07 09:39 55.74285 9.17897 216 ft 15 kts 86°
2026-05-07 09:40 55.74276 9.18070 218 ft 13 kts 116°
2026-05-07 09:40 55.74204 9.18146 219 ft 12 kts 173°
2026-05-07 09:40 55.74132 9.18125 220 ft 10 kts 226°
2026-05-07 09:40 55.74123 9.18063 216 ft 0 kts 266°
2026-05-07 09:41 55.74119 9.17951 223 ft 35 kts 266°
2026-05-07 09:41 55.74092 9.17086 220 ft 102 kts 267°
2026-05-07 09:41 55.74043 9.15507 217 ft 152 kts 267°
2026-05-07 09:41 55.73981 9.13424 392 ft 175 kts 266°
2026-05-07 09:42 55.73975 9.11303 1086 ft 172 kts 281°
2026-05-07 09:42 55.74609 9.09498 1597 ft 180 kts 312°
2026-05-07 09:42 55.75496 9.07764 1774 ft 200 kts 310°
2026-05-07 09:42 55.76454 9.05775 1933 ft 224 kts 308°
2026-05-07 09:43 55.77514 9.03543 2169 ft 248 kts 310°
2026-05-07 09:43 55.78662 9.01188 2879 ft 255 kts 310°
2026-05-07 09:43 55.79554 8.98472 3634 ft 258 kts 281°
2026-05-07 09:43 55.79594 8.96332 4152 ft 259 kts 257°
2026-05-07 09:44 55.78755 8.93549 4942 ft 260 kts 222°
2026-05-07 09:44 55.77152 8.92123 5631 ft 264 kts 187°
2026-05-07 09:44 55.75342 8.92606 6356 ft 270 kts 154°
2026-05-07 09:44 55.73761 8.94453 7039 ft 274 kts 142°
2026-05-07 09:45 55.72307 8.96672 7722 ft 278 kts 138°
2026-05-07 09:45 55.70860 8.98970 8418 ft 281 kts 139°
2026-05-07 09:45 55.69364 9.01245 9069 ft 285 kts 139°
2026-05-07 09:45 55.67826 9.03439 9744 ft 289 kts 141°
2026-05-07 09:46 55.66221 9.05605 10333 ft 294 kts 142°
2026-05-07 09:46 55.64509 9.07836 10469 ft 316 kts 143°
2026-05-07 09:46 55.62667 9.10190 10598 ft 337 kts 143°
2026-05-07 09:46 55.60705 9.12666 10728 ft 356 kts 143°
2026-05-07 09:47 55.58641 9.15251 10974 ft 370 kts 144°
2026-05-07 09:47 55.56519 9.17905 11508 ft 374 kts 144°
2026-05-07 09:47 55.54386 9.20575 12067 ft 378 kts 144°
2026-05-07 09:47 55.52233 9.23275 12691 ft 380 kts 144°
2026-05-07 09:48 55.50069 9.25992 13274 ft 384 kts 144°
2026-05-07 09:48 55.47877 9.28741 13816 ft 388 kts 145°
2026-05-07 09:48 55.45669 9.31506 14329 ft 391 kts 145°
2026-05-07 09:48 55.43446 9.34295 14846 ft 393 kts 145°
2026-05-07 09:49 55.41211 9.37093 15351 ft 396 kts 145°
2026-05-07 09:49 55.38957 9.39906 15845 ft 398 kts 145°
2026-05-07 09:49 55.36686 9.42730 16320 ft 401 kts 146°
2026-05-07 09:49 55.34390 9.45580 16777 ft 404 kts 146°
2026-05-07 09:50 55.32088 9.48435 17244 ft 407 kts 146°
2026-05-07 09:50 55.29763 9.51319 17704 ft 410 kts 146°
2026-05-07 09:50 55.27420 9.54216 18155 ft 414 kts 146°
2026-05-07 09:50 55.25058 9.57130 18574 ft 416 kts 146°
2026-05-07 09:51 55.22681 9.60059 18972 ft 419 kts 146°
2026-05-07 09:51 55.20291 9.63008 19370 ft 421 kts 146°
2026-05-07 09:51 55.17884 9.65976 19766 ft 424 kts 146°
2026-05-07 09:51 55.15473 9.68947 20156 ft 426 kts 146°
2026-05-07 09:52 55.13041 9.71934 20545 ft 428 kts 146°
2026-05-07 09:52 55.10594 9.74927 20940 ft 430 kts 146°
2026-05-07 09:52 55.08133 9.77930 21353 ft 432 kts 146°
2026-05-07 09:52 55.05658 9.80947 21747 ft 435 kts 146°
2026-05-07 09:53 55.03177 9.83972 22134 ft 437 kts 146°
2026-05-07 09:53 55.00709 9.86979 22508 ft 439 kts 146°
2026-05-07 09:53 54.98199 9.90035 22895 ft 441 kts 146°
2026-05-07 09:53 54.95660 9.93044 23282 ft 442 kts 150°
2026-05-07 09:54 54.92908 9.95424 23636 ft 442 kts 160°
2026-05-07 09:54 54.89954 9.96929 23942 ft 443 kts 171°
2026-05-07 09:54 54.86894 9.97499 24222 ft 443 kts 181°
2026-05-07 09:54 54.83826 9.97134 24508 ft 442 kts 191°
2026-05-07 09:55 54.80806 9.96150 24819 ft 443 kts 192°
2026-05-07 09:55 54.77769 9.95147 25116 ft 445 kts 192°
2026-05-07 09:55 54.74719 9.94149 25396 ft 447 kts 192°
2026-05-07 09:55 54.71663 9.93157 25670 ft 448 kts 192°
2026-05-07 09:56 54.68594 9.92160 25939 ft 450 kts 192°
2026-05-07 09:56 54.65500 9.91155 26221 ft 452 kts 192°
2026-05-07 09:56 54.62398 9.90147 26506 ft 454 kts 192°
2026-05-07 09:56 54.59282 9.89146 26775 ft 456 kts 192°
2026-05-07 09:57 54.56133 9.88484 27080 ft 458 kts 183°
2026-05-07 09:57 54.52935 9.88765 27355 ft 461 kts 173°
2026-05-07 09:57 54.49808 9.90025 27722 ft 463 kts 163°
2026-05-07 09:57 54.46848 9.92224 28089 ft 464 kts 153°
2026-05-07 09:58 54.44151 9.95281 28448 ft 466 kts 143°
2026-05-07 09:58 54.41626 9.98780 28795 ft 466 kts 142°
2026-05-07 09:58 54.39109 10.02260 29154 ft 465 kts 142°
2026-05-07 09:58 54.36583 10.05736 29502 ft 464 kts 142°
2026-05-07 09:59 54.34063 10.09190 29849 ft 464 kts 143°
2026-05-07 09:59 54.31535 10.12646 30178 ft 463 kts 143°
2026-05-07 09:59 54.29022 10.16076 30507 ft 462 kts 143°
2026-05-07 09:59 54.26544 10.19457 30797 ft 461 kts 143°
2026-05-07 10:00 54.24005 10.22918 31100 ft 461 kts 143°
2026-05-07 10:00 54.21533 10.26288 31394 ft 460 kts 143°
2026-05-07 10:00 54.19001 10.29733 31690 ft 459 kts 143°
2026-05-07 10:00 54.16499 10.33129 31984 ft 459 kts 143°
2026-05-07 10:01 54.14006 10.36512 32278 ft 458 kts 143°
2026-05-07 10:01 54.11507 10.39901 32571 ft 458 kts 143°
2026-05-07 10:01 54.09018 10.43269 32849 ft 457 kts 143°
2026-05-07 10:01 54.06519 10.46640 33137 ft 457 kts 143°
2026-05-07 10:02 54.04064 10.49943 33414 ft 456 kts 143°
2026-05-07 10:02 54.01577 10.53283 33703 ft 456 kts 143°
2026-05-07 10:02 53.99086 10.56620 33986 ft 455 kts 143°
2026-05-07 10:02 53.96565 10.59994 34207 ft 455 kts 143°
2026-05-07 10:03 53.94087 10.63310 34407 ft 455 kts 143°
2026-05-07 10:03 53.91639 10.66590 34614 ft 454 kts 143°
2026-05-07 10:03 53.89120 10.69956 34810 ft 454 kts 143°
2026-05-07 10:03 53.86668 10.73226 34992 ft 454 kts 143°
2026-05-07 10:04 53.84183 10.76531 35068 ft 455 kts 143°
2026-05-07 10:04 53.79200 10.83137 35084 ft 454 kts 143°
2026-05-07 10:05 53.74193 10.89753 35080 ft 454 kts 143°
2026-05-07 10:05 53.69107 10.95908 35077 ft 452 kts 150°
2026-05-07 10:06 53.63731 11.01403 35071 ft 451 kts 150°
2026-05-07 10:06 53.58360 11.06872 35064 ft 451 kts 150°
2026-05-07 10:07 53.52988 11.12336 35059 ft 451 kts 150°
2026-05-07 10:07 53.47616 11.17781 35061 ft 451 kts 150°
2026-05-07 10:08 53.42235 11.23210 35059 ft 451 kts 150°
2026-05-07 10:08 53.36863 11.28619 35058 ft 450 kts 150°
2026-05-07 10:09 53.31495 11.34015 35057 ft 450 kts 151°
2026-05-07 10:09 53.26163 11.39476 35047 ft 450 kts 146°
2026-05-07 10:10 53.21142 11.45751 35051 ft 450 kts 145°
2026-05-07 10:10 53.16119 11.52008 35042 ft 450 kts 145°
2026-05-07 10:11 53.11097 11.58219 35039 ft 450 kts 145°
2026-05-07 10:11 53.06074 11.64415 35040 ft 449 kts 145°
2026-05-07 10:12 53.01055 11.70611 35035 ft 449 kts 145°
2026-05-07 10:12 52.96035 11.76794 35019 ft 449 kts 146°
2026-05-07 10:13 52.91009 11.82952 35026 ft 449 kts 146°
2026-05-07 10:13 52.85997 11.89057 35026 ft 448 kts 146°
2026-05-07 10:14 52.80989 11.95157 35034 ft 448 kts 146°
2026-05-07 10:14 52.75964 12.01271 35034 ft 448 kts 146°
2026-05-07 10:15 52.70907 12.07401 35023 ft 448 kts 146°
2026-05-07 10:15 52.65877 12.13479 35019 ft 448 kts 146°
2026-05-07 10:16 52.60875 12.19495 35029 ft 448 kts 146°
2026-05-07 10:16 52.55844 12.25515 35028 ft 448 kts 146°
2026-05-07 10:17 52.50776 12.31581 35024 ft 448 kts 146°
2026-05-07 10:17 52.45775 12.37561 35025 ft 447 kts 146°
2026-05-07 10:18 52.40738 12.43549 35025 ft 447 kts 146°
2026-05-07 10:18 52.35696 12.49529 35006 ft 447 kts 147°
2026-05-07 10:19 52.30658 12.55488 35018 ft 446 kts 147°
2026-05-07 10:19 52.25625 12.61427 35020 ft 446 kts 147°
2026-05-07 10:20 52.20602 12.67340 35020 ft 445 kts 147°
2026-05-07 10:20 52.15573 12.73240 35018 ft 445 kts 147°
2026-05-07 10:21 52.10551 12.79124 35015 ft 445 kts 147°
2026-05-07 10:21 52.05518 12.84989 34996 ft 444 kts 147°
2026-05-07 10:22 52.00501 12.90812 35011 ft 443 kts 147°
2026-05-07 10:22 51.95488 12.96621 35017 ft 442 kts 147°
2026-05-07 10:23 51.90482 13.02415 35019 ft 441 kts 147°
2026-05-07 10:23 51.86337 13.07204 35011 ft 440 kts 147°
2026-05-07 10:24 51.81346 13.12946 35014 ft 440 kts 147°
2026-05-07 10:24 51.76601 13.19235 35004 ft 442 kts 141°
2026-05-07 10:25 51.72018 13.25842 34990 ft 442 kts 142°
2026-05-07 10:25 51.67425 13.32421 34994 ft 442 kts 142°
2026-05-07 10:26 51.62828 13.38982 34999 ft 441 kts 142°
2026-05-07 10:26 51.58228 13.45544 34995 ft 441 kts 142°
2026-05-07 10:27 51.53628 13.52083 34991 ft 442 kts 142°
2026-05-07 10:27 51.49019 13.58607 34961 ft 442 kts 143°
2026-05-07 10:28 51.44412 13.65113 34978 ft 441 kts 143°
2026-05-07 10:28 51.39805 13.71615 34984 ft 441 kts 143°
2026-05-07 10:29 51.35205 13.78096 34978 ft 440 kts 143°
2026-05-07 10:29 51.30605 13.84544 34985 ft 440 kts 143°
2026-05-07 10:30 51.23697 13.94200 34981 ft 439 kts 143°
2026-05-07 10:30 51.19097 14.00609 34982 ft 439 kts 143°
2026-05-07 10:31 51.14494 14.06992 34962 ft 439 kts 143°
2026-05-07 10:31 51.09890 14.13369 34959 ft 439 kts 143°
2026-05-07 10:32 51.05280 14.19746 34957 ft 439 kts 143°
2026-05-07 10:32 51.00663 14.26111 34952 ft 439 kts 143°
2026-05-07 10:33 50.96037 14.32463 34942 ft 439 kts 143°
2026-05-07 10:33 50.91327 14.38565 34952 ft 435 kts 148°
2026-05-07 10:34 50.86403 14.44119 34954 ft 434 kts 148°
2026-05-07 10:34 50.81515 14.49627 34954 ft 434 kts 149°
2026-05-07 10:35 50.76598 14.55132 34941 ft 433 kts 149°
2026-05-07 10:35 50.71678 14.60634 34944 ft 433 kts 149°
2026-05-07 10:36 50.66760 14.66128 34923 ft 433 kts 149°
2026-05-07 10:36 50.61841 14.71614 34928 ft 433 kts 149°
2026-05-07 10:37 50.56919 14.77076 34925 ft 433 kts 149°
2026-05-07 10:37 50.51991 14.82528 34927 ft 433 kts 149°
2026-05-07 10:38 50.47165 14.88224 34926 ft 437 kts 142°
2026-05-07 10:38 50.42660 14.94652 34927 ft 437 kts 142°
2026-05-07 10:39 50.38149 15.01055 34915 ft 437 kts 143°
2026-05-07 10:39 50.33636 15.07426 34927 ft 436 kts 143°
2026-05-07 10:40 50.29125 15.13791 34928 ft 437 kts 143°
2026-05-07 10:40 50.24608 15.20140 34927 ft 436 kts 143°
2026-05-07 10:41 50.20088 15.26467 34934 ft 436 kts 143°
2026-05-07 10:41 50.15564 15.32795 34909 ft 436 kts 144°
2026-05-07 10:42 50.11054 15.39092 34943 ft 435 kts 144°
2026-05-07 10:42 50.06551 15.45360 34949 ft 434 kts 144°
2026-05-07 10:43 50.02044 15.51608 34962 ft 433 kts 144°
2026-05-07 10:43 49.97546 15.57827 34964 ft 433 kts 144°
2026-05-07 10:44 49.93045 15.64031 34929 ft 432 kts 144°
2026-05-07 10:44 49.88555 15.70219 34946 ft 431 kts 144°
2026-05-07 10:45 49.84076 15.76381 34951 ft 430 kts 144°
2026-05-07 10:45 49.79596 15.82511 34952 ft 430 kts 144°
2026-05-07 10:46 49.75120 15.88626 34952 ft 429 kts 145°
2026-05-07 10:46 49.70637 15.94730 34953 ft 429 kts 145°
2026-05-07 10:47 49.66151 16.00833 34922 ft 429 kts 146°
2026-05-07 10:47 49.61668 16.06910 34942 ft 429 kts 146°
2026-05-07 10:48 49.57217 16.12925 34944 ft 428 kts 146°
2026-05-07 10:48 49.52697 16.19011 34951 ft 429 kts 146°
2026-05-07 10:49 49.48216 16.25042 34956 ft 428 kts 146°
2026-05-07 10:49 49.43762 16.31026 34925 ft 427 kts 146°
2026-05-07 10:50 49.39277 16.37024 34934 ft 427 kts 146°
2026-05-07 10:50 49.34790 16.43006 34941 ft 427 kts 146°
2026-05-07 10:51 49.30293 16.48988 34947 ft 427 kts 146°
2026-05-07 10:51 49.25802 16.54959 34953 ft 427 kts 146°
2026-05-07 10:52 49.21307 16.60929 34965 ft 427 kts 146°
2026-05-07 10:52 49.16803 16.66879 34958 ft 428 kts 146°
2026-05-07 10:53 49.12094 16.72344 34964 ft 423 kts 152°
2026-05-07 10:53 49.07253 16.77458 34966 ft 423 kts 151°
2026-05-07 10:54 49.02412 16.82575 34968 ft 423 kts 151°
2026-05-07 10:54 48.97569 16.87687 34966 ft 423 kts 152°
2026-05-07 10:55 48.92724 16.92784 34927 ft 423 kts 151°
2026-05-07 10:55 48.87871 16.97877 34943 ft 424 kts 152°
2026-05-07 10:56 48.83007 17.02969 34954 ft 424 kts 152°
2026-05-07 10:56 48.78139 17.08051 34962 ft 424 kts 152°
2026-05-07 10:57 48.73221 17.12978 34961 ft 423 kts 153°
2026-05-07 10:57 48.68256 17.17766 34964 ft 423 kts 153°
2026-05-07 10:58 48.63292 17.22548 34975 ft 423 kts 153°
2026-05-07 10:58 48.58371 17.27334 34976 ft 423 kts 153°
2026-05-07 10:59 48.53387 17.32178 34980 ft 423 kts 153°
2026-05-07 10:59 48.48435 17.36974 34980 ft 423 kts 153°
2026-05-07 11:00 48.43482 17.41759 34981 ft 423 kts 153°
2026-05-07 11:00 48.38559 17.46524 34947 ft 423 kts 154°
2026-05-07 11:01 48.33558 17.51324 34976 ft 425 kts 154°
2026-05-07 11:01 48.28600 17.56065 34979 ft 425 kts 154°
2026-05-07 11:02 48.23613 17.60847 34982 ft 425 kts 154°
2026-05-07 11:02 48.18621 17.65615 34983 ft 425 kts 154°
2026-05-07 11:03 48.14466 17.69576 34980 ft 425 kts 154°
2026-05-07 11:03 48.09469 17.74332 34946 ft 425 kts 154°
2026-05-07 11:04 48.04471 17.79076 34960 ft 425 kts 154°
2026-05-07 11:04 47.99467 17.83809 34967 ft 426 kts 154°
2026-05-07 11:05 47.94460 17.88545 34970 ft 426 kts 154°
2026-05-07 11:05 47.89447 17.93257 34974 ft 426 kts 155°
2026-05-07 11:06 47.84433 17.97966 34979 ft 426 kts 155°
2026-05-07 11:06 47.79423 18.02664 34947 ft 426 kts 154°
2026-05-07 11:07 47.74413 18.07388 34958 ft 428 kts 153°
2026-05-07 11:07 47.69536 18.12524 34967 ft 431 kts 150°
2026-05-07 11:08 47.64735 18.17872 34974 ft 431 kts 150°
2026-05-07 11:08 47.59915 18.23156 34972 ft 431 kts 151°
2026-05-07 11:09 47.55055 18.28348 34942 ft 431 kts 151°
2026-05-07 11:09 47.50186 18.33515 34955 ft 431 kts 151°
2026-05-07 11:10 47.45311 18.38688 34972 ft 432 kts 151°
2026-05-07 11:10 47.40430 18.43870 34980 ft 432 kts 151°
2026-05-07 11:11 47.35547 18.49047 34977 ft 432 kts 151°
2026-05-07 11:11 47.30662 18.54211 34957 ft 432 kts 151°
2026-05-07 11:12 47.25777 18.59374 34965 ft 433 kts 150°
2026-05-07 11:12 47.20869 18.64540 34974 ft 434 kts 151°
2026-05-07 11:13 47.15951 18.69694 34989 ft 434 kts 151°
2026-05-07 11:13 47.11035 18.74834 34993 ft 434 kts 151°
2026-05-07 11:14 47.06152 18.79949 34999 ft 434 kts 151°
2026-05-07 11:14 47.01224 18.85090 34979 ft 435 kts 151°
2026-05-07 11:15 46.96287 18.90219 34994 ft 436 kts 151°
2026-05-07 11:15 46.91342 18.95354 35002 ft 436 kts 151°
2026-05-07 11:16 46.86391 19.00485 35010 ft 436 kts 151°
2026-05-07 11:16 46.81432 19.05610 35004 ft 436 kts 151°
2026-05-07 11:17 46.76478 19.10717 34998 ft 436 kts 151°
2026-05-07 11:17 46.71520 19.15811 35006 ft 436 kts 151°
2026-05-07 11:18 46.66562 19.20890 35017 ft 436 kts 151°
2026-05-07 11:18 46.61599 19.25964 35020 ft 436 kts 151°
2026-05-07 11:19 46.56638 19.31030 35018 ft 436 kts 151°
2026-05-07 11:19 46.51681 19.36086 35006 ft 435 kts 150°
2026-05-07 11:20 46.46731 19.41118 35022 ft 434 kts 150°
2026-05-07 11:20 46.41775 19.46150 35024 ft 434 kts 151°
2026-05-07 11:21 46.36828 19.51158 35022 ft 434 kts 151°
2026-05-07 11:21 46.31872 19.56141 35025 ft 434 kts 151°
2026-05-07 11:22 46.26916 19.61127 35003 ft 434 kts 150°
2026-05-07 11:22 46.21962 19.66114 35012 ft 435 kts 150°
2026-05-07 11:23 46.16883 19.70768 35017 ft 429 kts 159°
2026-05-07 11:23 46.11512 19.74536 35015 ft 429 kts 159°
2026-05-07 11:24 46.06147 19.78316 35012 ft 429 kts 159°
2026-05-07 11:24 46.00777 19.82100 35012 ft 429 kts 159°
2026-05-07 11:25 45.95410 19.85872 35017 ft 429 kts 159°
2026-05-07 11:25 45.90044 19.89630 35021 ft 429 kts 159°
2026-05-07 11:26 45.84665 19.93379 35022 ft 429 kts 159°
2026-05-07 11:26 45.79300 19.97116 35020 ft 429 kts 159°
2026-05-07 11:27 45.73964 20.00826 35001 ft 429 kts 159°
2026-05-07 11:27 45.68591 20.04549 35005 ft 429 kts 159°
2026-05-07 11:28 45.63202 20.08265 35009 ft 430 kts 159°
2026-05-07 11:28 45.57811 20.11983 35006 ft 430 kts 159°
2026-05-07 11:29 45.52379 20.15727 35009 ft 431 kts 159°
2026-05-07 11:29 45.47008 20.19423 35012 ft 432 kts 159°
2026-05-07 11:30 45.41555 20.23151 34992 ft 432 kts 160°
2026-05-07 11:30 45.36024 20.26498 35004 ft 433 kts 163°
2026-05-07 11:31 45.30439 20.29579 35008 ft 434 kts 163°
2026-05-07 11:31 45.24817 20.32718 35013 ft 435 kts 163°
2026-05-07 11:32 45.16403 20.37552 35015 ft 435 kts 162°
2026-05-07 11:33 45.10791 20.40778 35018 ft 434 kts 162°
2026-05-07 11:33 45.05175 20.43989 35041 ft 433 kts 162°
2026-05-07 11:34 44.99572 20.47186 35063 ft 433 kts 162°
2026-05-07 11:34 44.93996 20.50357 35061 ft 432 kts 163°
2026-05-07 11:35 44.88456 20.53494 35059 ft 432 kts 163°
2026-05-07 11:35 44.82879 20.56656 35045 ft 432 kts 163°
2026-05-07 11:36 44.77305 20.59803 35045 ft 431 kts 163°
2026-05-07 11:36 44.71732 20.62944 35045 ft 431 kts 163°
2026-05-07 11:37 44.66163 20.66082 35039 ft 431 kts 163°
2026-05-07 11:37 44.60597 20.69206 35048 ft 430 kts 163°
2026-05-07 11:38 44.55036 20.72320 35051 ft 430 kts 163°
2026-05-07 11:38 44.49485 20.75420 35053 ft 429 kts 163°
2026-05-07 11:39 44.43935 20.78522 35062 ft 428 kts 163°
2026-05-07 11:39 44.38411 20.81595 35070 ft 427 kts 163°
2026-05-07 11:40 44.32887 20.84660 35069 ft 426 kts 163°
2026-05-07 11:40 44.27375 20.87716 35070 ft 426 kts 163°
2026-05-07 11:41 44.22797 20.90258 35066 ft 426 kts 163°
2026-05-07 11:41 44.17296 20.93295 35056 ft 425 kts 162°
2026-05-07 11:42 44.11794 20.96326 35070 ft 425 kts 162°
2026-05-07 11:42 44.06301 20.99353 35075 ft 425 kts 162°
2026-05-07 11:43 44.00798 21.02376 35085 ft 425 kts 162°
2026-05-07 11:43 43.95336 21.05596 35069 ft 426 kts 159°
2026-05-07 11:44 43.89999 21.09102 35060 ft 428 kts 158°
2026-05-07 11:44 43.84620 21.12647 35062 ft 428 kts 159°
2026-05-07 11:45 43.79176 21.16138 35069 ft 429 kts 159°
2026-05-07 11:45 43.73781 21.19552 35064 ft 429 kts 159°
2026-05-07 11:46 43.68298 21.23014 35072 ft 430 kts 159°
2026-05-07 11:46 43.62893 21.26426 35057 ft 430 kts 159°
2026-05-07 11:47 43.57446 21.29887 35071 ft 432 kts 159°
2026-05-07 11:47 43.51942 21.33373 35073 ft 432 kts 159°
2026-05-07 11:48 43.46500 21.36790 35090 ft 432 kts 159°
2026-05-07 11:48 43.40986 21.40243 35094 ft 433 kts 159°
2026-05-07 11:49 43.35514 21.43670 35092 ft 433 kts 159°
2026-05-07 11:49 43.30070 21.47078 35096 ft 433 kts 159°
2026-05-07 11:50 43.24593 21.50502 35100 ft 432 kts 159°
2026-05-07 11:50 43.19122 21.53920 35103 ft 432 kts 159°
2026-05-07 11:51 43.13652 21.57327 35113 ft 432 kts 159°
2026-05-07 11:51 43.08166 21.60729 35107 ft 432 kts 160°
2026-05-07 11:52 43.02682 21.64124 35117 ft 433 kts 159°
2026-05-07 11:52 42.97196 21.67519 35123 ft 433 kts 160°
2026-05-07 11:53 42.91581 21.70362 35123 ft 430 kts 165°
2026-05-07 11:53 42.85919 21.73010 35113 ft 430 kts 165°
2026-05-07 11:54 42.80263 21.75659 35115 ft 431 kts 165°
2026-05-07 11:54 42.74575 21.78324 35118 ft 431 kts 165°
2026-05-07 11:55 42.68897 21.80979 35109 ft 431 kts 165°
2026-05-07 11:55 42.63223 21.83617 35120 ft 431 kts 165°
2026-05-07 11:56 42.57547 21.86247 35130 ft 431 kts 165°
2026-05-07 11:56 42.51862 21.88869 35139 ft 431 kts 165°
2026-05-07 11:57 42.46179 21.91495 35138 ft 431 kts 165°
2026-05-07 11:57 42.40490 21.94112 35136 ft 432 kts 165°
2026-05-07 11:58 42.34808 21.96724 35144 ft 432 kts 165°
2026-05-07 11:58 42.29146 21.99320 35151 ft 432 kts 165°
2026-05-07 11:59 42.23413 22.01951 35138 ft 432 kts 165°
2026-05-07 11:59 42.17721 22.04559 35140 ft 432 kts 165°
2026-05-07 12:00 42.12046 22.07151 35168 ft 432 kts 165°
2026-05-07 12:00 42.06349 22.09754 35152 ft 432 kts 166°
2026-05-07 12:01 42.00647 22.12347 35138 ft 433 kts 166°
2026-05-07 12:01 41.94943 22.14930 35135 ft 432 kts 165°
2026-05-07 12:02 41.89241 22.17516 35140 ft 432 kts 165°
2026-05-07 12:02 41.83545 22.20097 35154 ft 432 kts 165°
2026-05-07 12:03 41.77833 22.22675 35150 ft 432 kts 165°
2026-05-07 12:03 41.72137 22.25248 35151 ft 432 kts 166°
2026-05-07 12:04 41.66432 22.27813 35149 ft 432 kts 166°
2026-05-07 12:04 41.60726 22.30380 35145 ft 433 kts 165°
2026-05-07 12:05 41.55007 22.32945 35139 ft 434 kts 165°
2026-05-07 12:05 41.49269 22.35502 35144 ft 436 kts 165°
2026-05-07 12:06 41.43517 22.38073 35147 ft 436 kts 165°
2026-05-07 12:06 41.37758 22.40638 35144 ft 437 kts 165°
2026-05-07 12:07 41.31987 22.43205 35145 ft 437 kts 165°
2026-05-07 12:07 41.26219 22.45768 35139 ft 437 kts 165°
2026-05-07 12:08 41.20441 22.48326 35155 ft 437 kts 165°
2026-05-07 12:08 41.14681 22.50903 35152 ft 437 kts 164°
2026-05-07 12:09 41.08957 22.53672 35159 ft 438 kts 163°
2026-05-07 12:09 41.03244 22.56515 35158 ft 438 kts 163°
2026-05-07 12:10 40.97535 22.59328 35155 ft 438 kts 163°
2026-05-07 12:10 40.91809 22.62106 35155 ft 438 kts 163°
2026-05-07 12:11 40.86074 22.64905 35148 ft 439 kts 163°
2026-05-07 12:11 40.80333 22.67688 35149 ft 439 kts 163°
2026-05-07 12:12 40.74602 22.70496 35146 ft 440 kts 162°
2026-05-07 12:12 40.68854 22.73319 35140 ft 441 kts 162°
2026-05-07 12:13 40.63079 22.76097 35165 ft 442 kts 163°
2026-05-07 12:13 40.57294 22.78855 35149 ft 442 kts 163°
2026-05-07 12:14 40.51489 22.81641 35164 ft 445 kts 163°
2026-05-07 12:14 40.45677 22.84431 35165 ft 445 kts 163°
2026-05-07 12:15 40.39871 22.87209 35161 ft 445 kts 163°
2026-05-07 12:15 40.34049 22.89984 35157 ft 445 kts 163°
2026-05-07 12:16 40.28231 22.92744 35155 ft 445 kts 163°
2026-05-07 12:16 40.22404 22.95500 35139 ft 445 kts 163°
2026-05-07 12:17 40.16609 22.98242 35135 ft 446 kts 163°
2026-05-07 12:17 40.10766 23.01005 35137 ft 447 kts 163°
2026-05-07 12:18 40.04911 23.03765 35142 ft 448 kts 163°
2026-05-07 12:18 39.99048 23.06542 35139 ft 449 kts 162°
2026-05-07 12:19 39.93175 23.09307 35142 ft 449 kts 163°
2026-05-07 12:19 39.87275 23.12075 35132 ft 450 kts 163°
2026-05-07 12:20 39.81383 23.14838 35124 ft 451 kts 163°
2026-05-07 12:20 39.75473 23.17607 35127 ft 451 kts 163°
2026-05-07 12:21 39.70553 23.19896 35125 ft 452 kts 163°
2026-05-07 12:21 39.64628 23.22644 35128 ft 453 kts 163°
2026-05-07 12:22 39.58685 23.25410 35126 ft 453 kts 163°
2026-05-07 12:22 39.52739 23.28177 35123 ft 454 kts 163°
2026-05-07 12:23 39.46782 23.30941 35128 ft 455 kts 163°
2026-05-07 12:23 39.40813 23.33700 35131 ft 455 kts 163°
2026-05-07 12:24 39.34870 23.36445 35118 ft 455 kts 163°
2026-05-07 12:24 39.28878 23.39201 35116 ft 456 kts 163°
2026-05-07 12:25 39.22896 23.41960 35111 ft 457 kts 163°
2026-05-07 12:25 39.16901 23.44723 35114 ft 457 kts 163°
2026-05-07 12:26 39.10899 23.47474 35109 ft 458 kts 164°
2026-05-07 12:26 39.04891 23.50225 35107 ft 459 kts 164°
2026-05-07 12:27 38.98896 23.52964 35108 ft 461 kts 164°
2026-05-07 12:27 38.92841 23.55721 35116 ft 462 kts 164°
2026-05-07 12:28 38.86780 23.58479 35086 ft 462 kts 165°
2026-05-07 12:28 38.80698 23.61253 35091 ft 465 kts 165°
2026-05-07 12:29 38.74567 23.64034 35094 ft 468 kts 165°
2026-05-07 12:29 38.68413 23.66821 35094 ft 469 kts 165°
2026-05-07 12:30 38.62250 23.69603 35073 ft 471 kts 166°
2026-05-07 12:30 38.56041 23.72415 35086 ft 475 kts 166°
2026-05-07 12:31 38.49794 23.75217 35097 ft 477 kts 166°
2026-05-07 12:31 38.43524 23.78034 35108 ft 477 kts 166°
2026-05-07 12:32 38.37262 23.80836 35085 ft 477 kts 167°
2026-05-07 12:32 38.31016 23.83631 35090 ft 480 kts 167°
2026-05-07 12:33 38.21539 23.87869 35103 ft 482 kts 167°
2026-05-07 12:33 38.15201 23.90697 35110 ft 483 kts 167°
2026-05-07 12:34 38.08856 23.93520 35122 ft 483 kts 167°
2026-05-07 12:34 38.02514 23.96336 35124 ft 483 kts 167°
2026-05-07 12:35 37.96168 23.99146 35126 ft 483 kts 167°
2026-05-07 12:35 37.89821 24.01952 35112 ft 483 kts 167°
2026-05-07 12:36 37.83468 24.04756 35121 ft 484 kts 167°
2026-05-07 12:36 37.77115 24.07568 35129 ft 484 kts 166°
2026-05-07 12:37 37.70753 24.10382 35134 ft 484 kts 166°
2026-05-07 12:37 37.64391 24.13179 35119 ft 484 kts 167°
2026-05-07 12:38 37.58019 24.15973 35132 ft 484 kts 167°
2026-05-07 12:38 37.51654 24.18753 35133 ft 485 kts 167°
2026-05-07 12:39 37.45271 24.21532 35126 ft 485 kts 167°
2026-05-07 12:39 37.38898 24.24311 35129 ft 486 kts 167°
2026-05-07 12:40 37.32505 24.27093 35144 ft 486 kts 167°
2026-05-07 12:40 37.26105 24.29867 35141 ft 487 kts 167°
2026-05-07 12:41 37.19708 24.32646 35135 ft 487 kts 167°
2026-05-07 12:41 37.13332 24.35413 35137 ft 487 kts 167°
2026-05-07 12:42 37.06922 24.38180 35136 ft 487 kts 167°
2026-05-07 12:42 37.00503 24.40945 35140 ft 488 kts 167°
2026-05-07 12:43 36.97284 24.42333 34584 ft 492 kts 166°
2026-05-07 12:43 36.94012 24.43740 33484 ft 500 kts 166°
2026-05-07 12:43 36.90719 24.45160 32551 ft 502 kts 166°
2026-05-07 12:43 36.87412 24.46578 31579 ft 505 kts 166°
2026-05-07 12:44 36.84079 24.48003 30732 ft 505 kts 165°
2026-05-07 12:44 36.80735 24.49434 29602 ft 510 kts 165°
2026-05-07 12:44 36.77394 24.50866 28734 ft 507 kts 165°
2026-05-07 12:44 36.74063 24.52295 27646 ft 505 kts 165°
2026-05-07 12:45 36.70745 24.53719 26239 ft 504 kts 165°
2026-05-07 12:45 36.67473 24.55121 25580 ft 488 kts 165°
2026-05-07 12:45 36.64303 24.56481 24844 ft 475 kts 165°
2026-05-07 12:45 36.61215 24.57803 24136 ft 465 kts 165°
2026-05-07 12:46 36.58167 24.59103 23402 ft 463 kts 164°
2026-05-07 12:46 36.55127 24.60396 22724 ft 459 kts 164°
2026-05-07 12:46 36.52120 24.61675 22077 ft 454 kts 164°
2026-05-07 12:46 36.49145 24.62941 21452 ft 449 kts 164°
2026-05-07 12:47 36.46202 24.64191 20834 ft 445 kts 164°
2026-05-07 12:47 36.43297 24.65425 20247 ft 440 kts 164°
2026-05-07 12:47 36.40417 24.66648 19677 ft 435 kts 164°
2026-05-07 12:47 36.37566 24.67853 19104 ft 430 kts 164°
2026-05-07 12:48 36.34747 24.69042 18594 ft 425 kts 164°
2026-05-07 12:48 36.31966 24.70216 18023 ft 420 kts 163°
2026-05-07 12:48 36.29231 24.71373 17536 ft 413 kts 163°
2026-05-07 12:48 36.26525 24.72515 17046 ft 406 kts 163°
2026-05-07 12:49 36.23904 24.73619 16589 ft 400 kts 163°
2026-05-07 12:49 36.21283 24.74722 16126 ft 395 kts 163°
2026-05-07 12:49 36.18690 24.75813 15654 ft 391 kts 163°
2026-05-07 12:49 36.16127 24.76892 15178 ft 388 kts 163°
2026-05-07 12:50 36.13578 24.77967 14682 ft 385 kts 163°
2026-05-07 12:50 36.11051 24.79034 14199 ft 383 kts 162°
2026-05-07 12:50 36.08529 24.80094 13658 ft 382 kts 162°
2026-05-07 12:50 36.06020 24.81151 13147 ft 379 kts 162°
2026-05-07 12:51 36.03525 24.82203 12598 ft 377 kts 162°
2026-05-07 12:51 36.01047 24.83242 12074 ft 375 kts 162°
2026-05-07 12:51 35.98576 24.84273 11518 ft 374 kts 162°
2026-05-07 12:51 35.96108 24.85305 11200 ft 371 kts 162°
2026-05-07 12:52 35.93718 24.86308 11133 ft 354 kts 162°
2026-05-07 12:52 35.91446 24.87261 11148 ft 337 kts 162°
2026-05-07 12:52 35.89277 24.88167 11148 ft 320 kts 162°
2026-05-07 12:52 35.87207 24.89029 11152 ft 309 kts 162°
2026-05-07 12:53 35.85175 24.89875 11152 ft 308 kts 162°
2026-05-07 12:53 35.83146 24.90721 11087 ft 308 kts 162°
2026-05-07 12:53 35.81116 24.91570 10602 ft 307 kts 162°
2026-05-07 12:53 35.79105 24.92412 10062 ft 304 kts 162°
2026-05-07 12:54 35.77112 24.93243 9558 ft 299 kts 162°
2026-05-07 12:54 35.75154 24.94057 9118 ft 295 kts 162°
2026-05-07 12:54 35.73221 24.94862 8697 ft 294 kts 162°
2026-05-07 12:54 35.71297 24.95665 8268 ft 289 kts 162°
2026-05-07 12:55 35.69426 24.96444 7741 ft 287 kts 162°
2026-05-07 12:55 35.67555 24.97224 7384 ft 277 kts 162°
2026-05-07 12:55 35.65743 24.97979 6841 ft 275 kts 162°
2026-05-07 12:55 35.63948 24.98726 6385 ft 269 kts 162°
2026-05-07 12:56 35.62200 24.99454 5984 ft 261 kts 162°
2026-05-07 12:56 35.60508 25.00157 5611 ft 253 kts 162°
2026-05-07 12:56 35.58866 25.00839 5254 ft 246 kts 162°
2026-05-07 12:56 35.57291 25.01491 5135 ft 236 kts 162°
2026-05-07 12:57 35.55731 25.02137 5051 ft 236 kts 162°
2026-05-07 12:57 35.54180 25.02788 4953 ft 235 kts 159°
2026-05-07 12:57 35.52740 25.03730 4747 ft 235 kts 148°
2026-05-07 12:57 35.51385 25.04811 4423 ft 229 kts 148°
2026-05-07 12:58 35.50070 25.05857 4129 ft 219 kts 148°
2026-05-07 12:58 35.48824 25.06848 3874 ft 207 kts 149°
2026-05-07 12:58 35.47658 25.07778 3622 ft 194 kts 149°
2026-05-07 12:58 35.46551 25.08659 3382 ft 187 kts 148°
2026-05-07 12:59 35.45428 25.09458 3182 ft 187 kts 158°
2026-05-07 12:59 35.44607 25.09762 3095 ft 187 kts 170°
2026-05-07 12:59 35.42873 25.09709 2806 ft 188 kts 191°
2026-05-07 12:59 35.41595 25.09384 2578 ft 188 kts 192°
2026-05-07 13:00 35.40330 25.09014 2336 ft 185 kts 194°
2026-05-07 13:00 35.39109 25.08594 1954 ft 181 kts 195°
2026-05-07 13:00 35.37921 25.08119 1570 ft 178 kts 197°
2026-05-07 13:00 35.36808 25.07617 1354 ft 164 kts 199°
2026-05-07 13:01 35.35751 25.07169 1164 ft 158 kts 186°
2026-05-07 13:01 35.34725 25.07433 1169 ft 152 kts 144°
2026-05-07 13:01 35.34218 25.08500 1180 ft 149 kts 93°
2026-05-07 13:01 35.34314 25.09761 1070 ft 149 kts 81°
2026-05-07 13:02 35.34382 25.11022 973 ft 149 kts 90°
2026-05-07 13:02 35.34365 25.12291 813 ft 150 kts 91°
2026-05-07 13:02 35.34294 25.13551 651 ft 148 kts 93°
2026-05-07 13:02 35.34195 25.14808 459 ft 148 kts 92°
2026-05-07 13:03 35.34111 25.16064 223 ft 147 kts 92°
2026-05-07 13:03 35.34053 25.16886 112 ft 146 kts 93°
2026-05-07 13:03 35.33975 25.18050 93 ft 116 kts 95°
2026-05-07 13:03 35.33924 25.18767 90 ft 42 kts 95°
2026-05-07 13:04 35.33906 25.19008 90 ft 10 kts 110°
2026-05-07 13:04 35.33860 25.19000 89 ft 6 kts 226°
2026-05-07 13:04 35.33841 25.18967 91 ft 4 kts 235°
2026-05-07 13:04 35.33821 25.18928 90 ft 7 kts 246°
2026-05-07 13:05 35.33818 25.18870 90 ft 6 kts 274°
2026-05-07 13:05 35.33820 25.18820 90 ft 5 kts 274°
2026-05-07 13:05 35.33823 25.18780 90 ft 4 kts 275°
2026-05-07 13:05 35.33827 25.18721 91 ft 11 kts 275°
2026-05-07 13:06 35.33835 25.18605 90 ft 14 kts 275°
2026-05-07 13:06 35.33844 25.18486 92 ft 13 kts 275°
2026-05-07 13:06 35.33851 25.18378 91 ft 12 kts 275°
2026-05-07 13:06 35.33857 25.18286 94 ft 10 kts 275°
2026-05-07 13:07 35.33864 25.18192 93 ft 16 kts 275°
2026-05-07 13:07 35.33876 25.18015 92 ft 23 kts 274°
2026-05-07 13:07 35.33889 25.17829 93 ft 21 kts 275°
2026-05-07 13:07 35.33900 25.17669 92 ft 13 kts 275°
2026-05-07 13:08 35.33862 25.17624 91 ft 7 kts 190°
2026-05-07 13:08 35.33846 25.17589 95 ft 5 kts 273°
2026-05-07 13:08 35.33860 25.17561 92 ft 3 kts 311°
2026-05-07 13:08 35.33866 25.17552 91 ft 0 kts 311°